This is the latest recevied weather packets stored in our database for station/object N4TLC. If no packets are shown the sender has not sent any weather packets the latest 10 day(s).
| Time | Temp. | Humidity | Pressure | Rain* | Wind** | Luminosity | Snow |
|---|---|---|---|---|---|---|---|
| 1777818994 | 11.11° C | 41% | 1022.3 hPa | 0 mm | - | 55 W/m² | - |
| 1777818691 | 11.11° C | 42% | 1022.2 hPa | 0 mm | - | 54 W/m² | - |
| 1777818388 | 10.56° C | 43% | 1022 hPa | 0 mm | - | 55 W/m² | - |
| 1777818085 | 10.56° C | 43% | 1022.2 hPa | 0 mm | - | 53 W/m² | - |
| 1777817781 | 11.11° C | 42% | 1022.2 hPa | 0 mm | - | 53 W/m² | - |
| 1777817479 | 10.56° C | 43% | 1022 hPa | 0 mm | - | 51 W/m² | - |
| 1777817175 | 10.56° C | 46% | 1022 hPa | 0 mm | - | 52 W/m² | - |
| 1777816873 | 10.56° C | 45% | 1022 hPa | 0 mm | - | 50 W/m² | - |
| 1777816570 | 10.56° C | 46% | 1021.7 hPa | 0 mm | - | 50 W/m² | - |
| 1777816266 | 10.56° C | 44% | 1022 hPa | 0 mm | - | 49 W/m² | - |
| 1777815963 | 10.56° C | 43% | 1022 hPa | 0 mm | - | 49 W/m² | - |
| 1777815661 | 10.56° C | 45% | 1022.2 hPa | 0 mm | - | 49 W/m² | - |
| 1777815358 | 10.56° C | 46% | 1022 hPa | 0 mm | - | 48 W/m² | - |
| 1777815055 | 10.56° C | 46% | 1021.9 hPa | 0 mm | - | 48 W/m² | - |
| 1777814751 | 10° C | 47% | 1021.7 hPa | 0 mm | - | 47 W/m² | - |
| 1777814448 | 10° C | 48% | 1021.7 hPa | 0 mm | - | 47 W/m² | - |
| 1777814145 | 10° C | 51% | 1021.6 hPa | 0 mm | - | 46 W/m² | - |
| 1777813842 | 10.56° C | 49% | 1021.8 hPa | 0 mm | - | 45 W/m² | - |
| 1777813539 | 10° C | 52% | 1021.7 hPa | 0 mm | - | 45 W/m² | - |
| 1777813238 | 10° C | 54% | 1021.9 hPa | 0 mm | - | 44 W/m² | - |
| 1777812935 | 9.44° C | 56% | 1021.8 hPa | 0 mm | - | 44 W/m² | - |
| 1777812632 | 9.44° C | 56% | 1022 hPa | 0 mm | - | 43 W/m² | - |
| 1777812328 | 8.89° C | 61% | 1021.8 hPa | 0 mm | - | 42 W/m² | - |
| 1777812027 | 8.89° C | 63% | 1021.9 hPa | 0 mm | - | 41 W/m² | - |
| 1777811725 | 8.33° C | 67% | 1021.8 hPa | 0 mm | - | 40 W/m² | - |
* Rain latest hour (hover to see other rain measurements)
** Current wind speed in m/s (hover to see current wind gust speed)